Simultaneous Nadir Overpasses (SNOs) Predictions

Prediction of SNOs between AQUA and METOP-B Satellite Orbit:

Table of predicted SNOs for the next 14.0 days since TLE Epoch: 11/13/2021
Index Date (AQUA) Time (AQUA) Lat,Lon (AQUA) SZA (AQUA ) Date (METOP-B) Time (METOP-B) Lat,Lon (METOP-B) SZA (METOP-B ) Distance(km) Time Diff (sec)
1 11/13/2021 08:49:20 -73.78,-138.00 88.25 11/13/2021 08:48:49 -73.75,-138.01 88.28 3.18 31
2 11/13/2021 09:38:49 73.84, 29.49 91.83 11/13/2021 09:39:27 73.83, 29.52 91.82 1.24 38
3 11/16/2021 04:23:36 -73.77, -71.55 87.53 11/16/2021 04:23:11 -73.76, -71.57 87.54 1.11 25
4 11/16/2021 05:13:05 73.84, 95.94 92.55 11/16/2021 05:13:49 73.85, 95.96 92.55 1.16 44
5 11/18/2021 23:57:52 -73.78, -5.13 86.85 11/18/2021 23:57:33 -73.78, -5.13 86.85 0.44 19
6 11/19/2021 00:47:21 73.85, 162.35 93.24 11/19/2021 00:48:11 73.86, 162.40 93.24 1.84 50
7 11/21/2021 18:42:32 73.25,-105.21 93.24 11/21/2021 18:41:24 73.24,-107.27 93.26 66.30 68
8 11/21/2021 19:32:07 -73.80, 61.27 86.20 11/21/2021 19:31:54 -73.79, 61.30 86.21 1.66 13
9 11/21/2021 20:21:36 73.87,-131.26 93.89 11/21/2021 20:22:32 73.87,-131.17 93.89 2.80 56
10 11/24/2021 14:16:52 73.54, -39.38 94.13 11/24/2021 14:15:41 73.45, -40.40 94.05 33.85 71
11 11/24/2021 15:06:22 -73.78, 127.76 85.64 11/24/2021 15:06:16 -73.79, 127.73 85.62 2.26 6
12 11/24/2021 15:55:51 73.85, -64.77 94.46 11/24/2021 15:56:54 73.88, -64.74 94.48 2.85 63



Historial Predications of SNOs between AQUA and METOP-B
